East Porterville
DateTemperatureDew Point
05/04 - 02:45 PM63.4°48.6°
05/04 - 02:30 PM63.3°48.7°
05/04 - 02:15 PM62.9°48.6°
05/04 - 02:00 PM62.3°48.8°
05/04 - 01:45 PM61.9°48.9°
05/04 - 01:30 PM61.1°48.7°
05/04 - 01:15 PM60.5°48.6°
05/04 - 01:00 PM60.2°48.5°
05/04 - 12:45 PM59.8°49.1°
05/04 - 12:30 PM59.3°50.0°
05/04 - 12:15 PM59.0°50.1°
05/04 - 12:00 PM58.8°50.0°
05/04 - 11:45 AM58.9°49.4°
05/04 - 11:30 AM58.8°49.1°
05/04 - 11:15 AM58.3°49.4°
05/04 - 11:00 AM58.3°49.5°
05/04 - 10:45 AM57.9°49.5°
05/04 - 10:30 AM57.6°50.0°
05/04 - 10:15 AM57.6°49.7°
05/04 - 10:00 AM57.7°50.2°
05/04 - 09:45 AM57.4°50.5°
05/04 - 09:30 AM57.0°50.4°
05/04 - 09:15 AM56.5°51.3°
05/04 - 09:00 AM55.8°51.3°
05/04 - 08:45 AM55.5°51.5°
05/04 - 08:30 AM55.3°51.7°
05/04 - 08:15 AM55.0°51.7°
05/04 - 08:00 AM54.9°52.4°
05/04 - 07:45 AM54.7°52.6°
05/04 - 07:30 AM54.5°52.4°
05/04 - 07:15 AM54.7°52.5°
05/04 - 07:00 AM54.9°52.4°
05/04 - 06:45 AM54.9°52.3°
05/04 - 06:30 AM55.0°51.6°
05/04 - 06:15 AM55.2°51.3°
05/04 - 06:00 AM55.7°51.0°
05/04 - 05:45 AM56.3°49.6°
05/04 - 05:30 AM56.6°47.1°
05/04 - 05:15 AM56.7°45.8°
05/04 - 05:00 AM56.6°45.4°
05/04 - 04:45 AM56.9°45.5°
05/04 - 04:30 AM57.0°45.3°
05/04 - 04:15 AM57.2°45.2°
05/04 - 04:00 AM57.3°45.1°
05/04 - 03:45 AM57.4°45.3°
05/04 - 03:30 AM57.5°45.3°
05/04 - 03:15 AM57.5°45.2°
05/04 - 03:00 AM57.5°45.3°
05/04 - 02:45 AM57.5°44.9°
05/04 - 02:30 AM57.3°45.0°
05/04 - 02:15 AM57.6°45.3°
05/04 - 02:00 AM57.8°45.1°
05/04 - 01:45 AM57.9°45.0°
05/04 - 01:30 AM58.1°45.0°
05/04 - 01:15 AM58.3°44.9°
05/04 - 01:00 AM58.4°44.9°
05/04 - 12:45 AM58.4°44.6°
05/04 - 12:30 AM58.7°44.6°
05/04 - 12:15 AM59.0°44.7°
05/04 - 12:00 AM59.4°44.4°
05/03 - 11:45 PM59.8°44.1°
05/03 - 11:30 PM60.1°43.9°
05/03 - 11:15 PM60.4°43.4°
05/03 - 11:00 PM60.8°42.7°
05/03 - 10:45 PM61.3°42.6°
05/03 - 10:30 PM61.6°42.8°
05/03 - 10:15 PM61.5°42.5°
05/03 - 10:00 PM61.8°42.7°
05/03 - 09:45 PM61.7°42.7°
05/03 - 09:30 PM62.0°42.9°
05/03 - 09:15 PM62.4°43.2°
05/03 - 09:00 PM62.6°43.4°
05/03 - 08:45 PM62.9°43.2°
05/03 - 08:30 PM63.4°43.8°
05/03 - 08:15 PM63.9°44.3°
05/03 - 08:00 PM65.1°44.4°
05/03 - 07:45 PM66.3°43.7°
05/03 - 07:30 PM68.2°44.1°
05/03 - 07:15 PM70.5°44.9°
05/03 - 07:00 PM72.2°46.7°
05/03 - 06:45 PM72.6°47.5°
05/03 - 06:30 PM73.8°48.7°
05/03 - 06:15 PM75.1°50.4°
05/03 - 06:00 PM76.1°51.2°
05/03 - 05:45 PM76.7°51.3°
05/03 - 05:30 PM76.5°51.6°
05/03 - 05:15 PM76.4°51.7°
05/03 - 05:00 PM77.2°51.9°
05/03 - 04:45 PM77.0°52.1°
05/03 - 04:30 PM77.0°52.3°
05/03 - 04:15 PM77.4°52.2°
05/03 - 04:00 PM77.9°52.4°
05/03 - 03:45 PM77.6°52.0°
05/03 - 03:30 PM77.6°52.5°
05/03 - 03:15 PM77.9°52.7°
05/03 - 03:00 PM77.7°53.3°
05/03 - 02:45 PM75.5°53.4°
05/03 - 02:30 PM75.8°53.6°
05/03 - 02:15 PM75.2°53.9°
05/03 - 02:00 PM75.3°54.3°
05/03 - 01:45 PM75.8°54.6°
05/03 - 01:30 PM75.4°55.2°
05/03 - 01:15 PM75.1°55.2°
05/03 - 01:00 PM74.4°55.5°
05/03 - 12:45 PM73.0°55.1°
05/03 - 12:30 PM72.4°55.5°
05/03 - 12:15 PM73.5°56.2°
05/03 - 12:00 PM72.4°56.3°
05/03 - 11:45 AM71.1°55.8°
05/03 - 11:30 AM70.9°55.4°
05/03 - 11:15 AM70.9°55.5°
05/03 - 11:00 AM71.0°55.7°
05/03 - 10:45 AM69.2°55.1°
05/03 - 10:30 AM67.6°54.9°
05/03 - 10:15 AM67.4°54.7°
05/03 - 10:00 AM66.4°54.2°
05/03 - 09:45 AM64.9°53.9°
05/03 - 09:30 AM64.0°53.7°
05/03 - 09:15 AM63.3°53.2°
05/03 - 09:00 AM63.0°53.2°
05/03 - 08:45 AM62.7°52.7°
05/03 - 08:30 AM62.2°52.4°
05/03 - 08:15 AM61.6°51.9°
05/03 - 08:00 AM61.7°51.7°
05/03 - 07:45 AM60.8°52.1°
05/03 - 07:30 AM59.4°51.5°
05/03 - 07:15 AM57.7°51.7°
05/03 - 07:00 AM56.1°51.9°
05/03 - 06:45 AM54.8°51.9°
05/03 - 06:30 AM53.8°52.2°
05/03 - 06:15 AM53.1°52.3°
05/03 - 06:00 AM53.2°52.7°
05/03 - 05:45 AM53.6°53.5°
05/03 - 05:30 AM54.1°54.1°
05/03 - 05:15 AM54.5°54.4°
05/03 - 05:00 AM54.9°54.9°
05/03 - 04:45 AM55.5°55.4°
05/03 - 04:30 AM55.7°55.7°
05/03 - 04:15 AM56.1°56.1°
05/03 - 04:00 AM56.8°56.8°
05/03 - 03:45 AM57.3°57.3°
05/03 - 03:30 AM57.6°57.6°
05/03 - 03:15 AM57.8°57.8°
05/03 - 03:00 AM57.8°57.7°
05/03 - 02:45 AM57.2°57.2°
05/03 - 02:30 AM57.3°57.2°
05/03 - 02:15 AM56.9°56.6°
05/03 - 02:00 AM57.0°56.5°
05/03 - 01:45 AM56.8°56.0°
05/03 - 01:30 AM56.9°55.7°
05/03 - 01:15 AM57.3°55.8°
05/03 - 01:00 AM57.9°55.7°
05/03 - 12:45 AM58.5°56.2°
05/03 - 12:30 AM58.9°56.0°
05/03 - 12:15 AM59.2°55.6°
05/03 - 12:00 AM59.8°54.9°
05/02 - 11:45 PM60.5°54.8°
05/02 - 11:30 PM60.9°54.5°
05/02 - 11:15 PM61.5°53.7°
05/02 - 11:00 PM62.0°53.7°
05/02 - 10:45 PM61.9°53.3°
05/02 - 10:30 PM62.1°53.5°
05/02 - 10:15 PM62.9°53.7°
05/02 - 10:00 PM63.6°53.5°
05/02 - 09:45 PM64.6°53.9°
05/02 - 09:30 PM65.4°53.4°
05/02 - 09:15 PM66.0°53.3°
05/02 - 09:00 PM67.1°52.7°
05/02 - 08:45 PM68.5°53.1°
05/02 - 08:30 PM70.2°53.4°
05/02 - 08:15 PM71.9°52.4°
05/02 - 08:00 PM74.1°52.3°
05/02 - 07:45 PM76.6°52.4°
05/02 - 07:30 PM79.1°51.2°
05/02 - 07:15 PM81.6°50.4°
05/02 - 07:00 PM84.1°50.4°
05/02 - 06:45 PM85.9°50.5°
05/02 - 06:30 PM87.3°49.2°
05/02 - 06:15 PM88.3°48.6°
05/02 - 06:00 PM88.9°47.9°
05/02 - 05:45 PM89.5°48.4°
05/02 - 05:30 PM89.6°48.0°
05/02 - 05:15 PM90.1°48.0°
05/02 - 05:00 PM90.6°48.7°
05/02 - 04:45 PM91.2°48.6°
05/02 - 04:30 PM91.7°48.1°
05/02 - 04:15 PM91.3°47.8°
05/02 - 04:00 PM91.1°47.5°
05/02 - 03:45 PM91.3°47.0°
05/02 - 03:30 PM91.3°47.3°